Lid_Strength_Index
6 7 8 11 12 9 13 13 14 13 12 10 8 7 7 7 7 6 5 5 5 4 4 3 3 3 2 2 2 2 2 2
6 7 8 10 8 13 13 16 17 14 16 16 12 10 8 7 7 6 6 5 5 4 4 3 3 2 2 2 2 2 2 1
8 9 10 10 12 11 12 13 16 17 16 10 10 9 9 7 7 6 6 5 5 4 3 3 3 2 2 2 2 2 2 2
10 7 7 8 10 11 14 14 13 14 16 8 8 8 7 7 6 6 5 5 4 4 4 3 3 3 3 2 2 2 2 1
12 10 8 10 9 9 10 12 13 16 16 8 8 8 7 7 7 6 6 5 5 4 4 4 3 3 4 3 2 2 2 2
13 12 10 10 9 9 11 13 13 12 14 11 10 9 8 7 7 6 6 5 5 5 4 3 3 3 4 3 2 2 2 2
10 9 9 9 9 8 10 11 13 11 12 11 10 9 8 7 6 6 6 6 5 5 4 4 3 3 2 2 2 2 2 2
12 9 9 9 8 8 8 8 10 10 13 9 8 7 7 7 7 7 6 6 5 4 4 4 3 3 3 2 2 2 2 2
15 10 10 12 10 9 9 8 9 12 10 8 8 7 7 7 7 7 6 6 5 5 4 4 4 4 4 4 3 2 2 2
15 13 18 11 8 8 8 8 9 9 9 8 8 7 7 6 6 6 6 5 5 5 5 5 5 5 4 3 3 3 3 2
16 15 12 10 9 9 10 11 8 8 8 8 7 7 8 6 5 5 5 6 6 6 6 6 5 2 2 3 3 3 2 2
14 17 18 11 7 6 7 14 7 7 8 8 8 12 10 6 5 6 7 7 6 6 5 4 5 4 4 6 5 4 4 4
14 15 12 8 6 6 14 14 8 7 7 8 9 8 6 6 6 6 7 6 6 5 6 6 6 6 7 7 8 7 6 7
13 15 16 7 7 11 10 8 7 7 7 7 7 6 6 6 6 6 6 5 5 7 7 7 7 7 8 9 8 8 8 9
13 14 9 7 8 6 6 7 7 7 6 6 6 6 6 7 7 6 6 6 6 7 8 8 8 7 9 9 9 9 9 10
11 10 9 8 7 6 6 6 6 5 5 5 6 6 7 7 6 6 6 7 6 7 8 8 7 7 8 8 8 8 9 8
10 9 8 7 6 6 6 5 5 4 5 5 5 5 5 6 6 7 7 7 6 8 8 8 7 7 7 7 8 9 10 10
12 8 9 8 6 5 6 6 5 5 5 4 5 5 5 6 6 6 7 7 7 6 6 6 6 7 7 7 8 10 11 11
8 6 6 6 5 5 5 5 5 4 4 5 4 4 4 6 6 6 6 6 6 6 6 6 6 7 7 8 9 11 11 11